Content
SEND FEEDBACK

Daily
Averages
Monthly
Summary
United States of America

WILMINGTON, NORTH CAROLINA


Home > North America > United States > North Carolina
Elevation: 21 meters     Latitude: 34 16N     Longitude: 077 54W

WEATHER
 
SELECT A DAY
Number of Records: 212,308;   Date Range: 1/1/95 - 10/21/14
 
SHARE

PRINT THIS DATA

[ ← Previous Day ]
WEATHER ALMANAC - 9 JUNE, 2014
[ Next Day → ]
[ °F ]   °C
Weather ElementAverageHighLow
Temperature26.1 °C29.4 °C (4:38 pm)22.8 °C (2:53 am)
Dewpoint22.8 °C24.4 °C (12:38 pm)17.2 °C (1:53 am)
Humidity82.1 %90 % (9:01 am)68 % (1:53 am)
Barometer1012.9 hPa1013.9 hPa (9:53 am)1012.2 hPa (4:32 am)
Wind Speed14.6 km/h27.8 km/h (5:53 pm)
Wind Gust35.2 km/h (1:53 pm)
Weather ElementAverage
Visibility13.8 km
Wind DirectionSSE (159.4 °)

Weather ElementTotal
Precipitation31.5 mm
Cooling Degree Days7.8 (Base 18.3)
Growing Degree Days16.1 (Base 10)
Averaged from 54 records on 9 June, 2014
WEATHER CONDITIONS BREAKOUT
WIND DIRECTION BREAKOUT
WEATHER BY HOUR - 9 JUNE, 2014
[ °F ]   °C
Local TimeTemperatureDewpointHumidityBarometerVisibilityWind DirectionWind SpeedGust SpeedPrecipitationEventsConditions
1:53 AM23.3 °C17.2 °C68 %1013.5 hPa16.1 kmSE (140°)9.3 km/hMostly Cloudy
2:53 AM22.8 °C17.8 °C73 %1013.2 hPa16.1 kmSSE (150°)5.6 km/hMostly Cloudy
3:53 AM23.3 °C18.9 °C76 %1012.5 hPa16.1 kmSE (140°)5.6 km/hMostly Cloudy
4:32 AM23.9 °C20 °C79 %1012.2 hPa16.1 kmSSE (150°)7.4 km/hMostly Cloudy
4:41 AM23.9 °C20 °C79 %1012.5 hPa16.1 kmSSE (150°)7.4 km/hScattered Clouds
4:53 AM23.3 °C20 °C82 %1012.5 hPa16.1 kmSSE (150°)7.4 km/hScattered Clouds
5:06 AM23.9 °C20.6 °C82 %1012.2 hPa16.1 kmSSE (150°)5.6 km/hMostly Cloudy
5:38 AM23.9 °C21.1 °C84 %1012.2 hPa16.1 kmSSE (150°)5.6 km/hScattered Clouds
5:53 AM23.3 °C21.1 °C87 %1012.2 hPa16.1 kmSSE (160°)7.4 km/hPartly Cloudy
6:08 AM23.9 °C21.7 °C87 %1012.5 hPa16.1 kmSSE (160°)5.6 km/hMostly Cloudy
6:34 AM24.4 °C21.7 °C85 %1012.5 hPa16.1 kmSSE (160°)7.4 km/hScattered Clouds
6:53 AM24.4 °C22.2 °C87 %1012.5 hPa16.1 kmSSE (150°)9.3 km/hClear
7:53 AM26.1 °C22.8 °C82 %1013.2 hPa16.1 kmSouth (170°)16.7 km/hScattered Clouds
8:22 AM26.7 °C22.8 °C79 %1013.2 hPa16.1 kmSouth (180°)13 km/hMostly Cloudy
8:35 AM25.6 °C22.8 °C84 %1013.2 hPa2.9 kmSouth (180°)14.8 km/h29.6 km/h0.51 mmRainHeavy Rain
8:38 AM25.6 °C23.3 °C87 %1013.2 hPa1.3 kmSouth (180°)22.2 km/h29.6 km/h2.03 mmRainHeavy Rain
8:48 AM26 °C23 °C83 %1013.2 hPa2.9 kmSSE (160°)13 km/h6.1 mmRainLight Rain
8:53 AM25.6 °C23.3 °C87 %1013.2 hPa16.1 kmSouth (170°)11.1 km/h6.1 mmOvercast
9:01 AM25.6 °C23.9 °C90 %1013.2 hPa16.1 kmSSE (160°)9.3 km/hOvercast
9:09 AM25.6 °C23.3 °C87 %1013.5 hPa16.1 kmSSE (160°)9.3 km/hOvercast
9:23 AM26.1 °C23.9 °C88 %1013.5 hPa16.1 kmSSE (160°)14.8 km/hOvercast
9:39 AM25.6 °C23.3 °C87 %1013.5 hPa16.1 kmSSE (160°)18.5 km/hOvercast
9:50 AM26 °C23 °C83 %1013.5 hPa16.1 kmSouth (170°)14.8 km/hOvercast
9:53 AM25.6 °C23.3 °C87 %1013.9 hPa16.1 kmSouth (170°)18.5 km/hOvercast
10:53 AM27 °C23 °C79 %1013.5 hPa16.1 kmSSE (150°)11.1 km/hOvercast
11:19 AM27.2 °C23.3 °C79 %1013.5 hPa16.1 kmSSE (160°)14.8 km/h29.6 km/hOvercast
11:44 AM26.1 °C23.9 °C88 %1013.9 hPa3.2 kmSSE (160°)16.7 km/h27.8 km/h0.25 mmRainHeavy Rain
11:47 AM26 °C24 °C89 %1013.9 hPa1.9 kmSSE (150°)14.8 km/h1.02 mmRainHeavy Rain
11:51 AM26 °C24 °C89 %1013.5 hPa1.3 kmSE (140°)14.8 km/h3.05 mmRainHeavy Rain
11:53 AM25.6 °C23.9 °C90 %1013.9 hPa1.3 kmSE (130°)16.7 km/h4.32 mmRainHeavy Rain
11:58 AM25.6 °C23.9 °C90 %1013.5 hPa2.4 kmSSE (150°)14.8 km/h1.02 mmRainLight Rain
12:01 PM25.6 °C23.9 °C90 %1013.5 hPa4.8 kmSE (140°)14.8 km/h1.02 mmRainLight Rain
12:23 PM25.6 °C23.9 °C90 %1013.9 hPa16.1 kmSSE (150°)18.5 km/h2.03 mmRainLight Rain
12:38 PM26.7 °C24.4 °C87 %1013.5 hPa16.1 kmSSE (160°)16.7 km/h2.03 mmMostly Cloudy
12:53 PM27.8 °C24.4 °C82 %1013.5 hPa16.1 kmSouth (170°)18.5 km/h31.5 km/h2.03 mmMostly Cloudy
1:02 PM27.8 °C24.4 °C82 %1013.5 hPa16.1 kmSouth (170°)22.2 km/hMostly Cloudy
1:20 PM28.3 °C24.4 °C79 %1013.2 hPa16.1 kmSouth (170°)20.4 km/hMostly Cloudy
1:53 PM28.3 °C23.9 °C77 %1012.9 hPa16.1 kmSouth (170°)25.9 km/h35.2 km/hMostly Cloudy
2:01 PM28 °C24 °C79 %1012.9 hPa16.1 kmSE (140°)18.5 km/h29.6 km/hScattered Clouds
2:08 PM28.9 °C23.9 °C74 %1012.9 hPa16.1 kmSE (140°)24.1 km/h33.3 km/hMostly Cloudy
3:49 PM28 °C23 °C74 %1012.5 hPa16.1 kmSSE (150°)20.4 km/h35.2 km/hMostly Cloudy
3:53 PM28 °C23 °C74 %1012.5 hPa16.1 kmSSE (150°)20.4 km/h35.2 km/hMostly Cloudy
4:18 PM27.8 °C23.3 °C76 %1012.2 hPa16.1 kmSE (140°)18.5 km/h31.5 km/hMostly Cloudy
4:38 PM29.4 °C23.9 °C72 %1012.2 hPa16.1 kmSSE (150°)20.4 km/h33.3 km/hScattered Clouds
4:53 PM28.9 °C23.9 °C74 %1012.2 hPa16.1 kmSSE (150°)22.2 km/h31.5 km/hScattered Clouds
5:04 PM28.9 °C23.9 °C74 %1012.2 hPa16.1 kmSSE (160°)22.2 km/h35.2 km/hMostly Cloudy
5:53 PM28.9 °C23.3 °C72 %1012.2 hPa16.1 kmSouth (190°)27.8 km/hScattered Clouds
6:53 PM28 °C23 °C74 %1012.2 hPa16.1 kmSouth (190°)18.5 km/hScattered Clouds
7:15 PM27.8 °C23.3 °C76 %1012.2 hPa16.1 kmSouth (170°)14.8 km/hMostly Cloudy
7:53 PM27.2 °C22.8 °C77 %1012.5 hPa16.1 kmSouth (170°)14.8 km/hClear
8:53 PM25.6 °C23.3 °C87 %1012.9 hPa16.1 kmSouth (170°)11.1 km/hClear
9:53 PM25.6 °C23.3 °C87 %1013.2 hPa16.1 kmSouth (170°)14.8 km/hClear
10:53 PM25.6 °C23.3 °C87 %1013.9 hPa16.1 kmSouth (180°)13 km/hClear
11:53 PM25 °C23.3 °C90 %1013.5 hPa16.1 kmSouth (190°)11.1 km/hClear
Hourly data recorded from KILM, located 0 kilometers away from Wilmington, North Carolina







STORIES FROM OUR PARTNERS